Location: Bartshausen
(51.8454°N, 9.8167°E)
Time: 12:31:03
(UTC+00:00)

Iridium 4 Rocket - Pass Details

Date: 08 November 2025
Orbit: 579 x 888 km, 86.9° (Epoch: 10 December)

Event Time Altitude Azimuth Distance (km) Brightness Sun altitude
Rises 04:23:47 0° 356° (N) 2,985 6.5 -19.2°
Reaches altitude 10° 04:26:06 10° 356° (N) 2,029 5.6 -18.9°
Maximum altitude 04:30:32 90° 296° (WNW) 612 2.9 -18.2°
Drops below altitude 10° 04:34:42 10° 178° (S) 1,907 5.6 -17.6°
Sets 04:36:50 0° 179° (S) 2,790 6.5 -17.2°
